Time,TemperatureF,DewpointF,PressureIn,WindDirection,WindDirectionDegrees,WindSpeedMPH,WindSpeedGustMPH,Humidity,HourlyPrecipIn,Conditions,Clouds,dailyrainin,SoftwareType,DateUTC
2013-05-23 00:01:00,46.1,0.0,29.99,ENE,59,1.0,-999.0,0,-99.99,,,0.00,dwt +perl,2013-05-23 07:01:00,
2013-05-23 00:06:00,46.1,0.0,29.99,NNE,15,0.0,-999.0,0,-99.99,,,0.00,dwt +perl,2013-05-23 07:06:00,
2013-05-23 00:11:00,46.3,0.0,29.99,WSW,252,3.0,-999.0,0,-99.99,,,0.00,dwt +perl,2013-05-23 07:11:00,
2013-05-23 00:16:00,46.4,0.0,29.99,WSW,248,2.0,-999.0,0,-99.99,,,0.00,dwt +perl,2013-05-23 07:16:00,
2013-05-23 00:21:00,46.5,0.0,29.99,NNE,13,0.0,-999.0,0,-99.99,,,0.00,dwt +perl,2013-05-23 07:21:00,
2013-05-23 00:26:00,46.6,0.0,29.99,NW,322,3.0,-999.0,0,-99.99,,,0.00,dwt +perl,2013-05-23 07:26:00,
2013-05-23 00:31:00,46.6,0.0,29.99,North,10,4.0,-999.0,0,-99.99,,,0.00,dwt +perl,2013-05-23 07:31:00,
2013-05-23 00:36:00,46.6,0.0,30.00,NNW,338,0.0,-999.0,0,-99.99,,,0.00,dwt +perl,2013-05-23 07:36:00,
2013-05-23 00:41:00,46.5,0.0,29.99,NNE,12,2.0,-999.0,0,-99.99,,,0.00,dwt +perl,2013-05-23 07:41:00,
2013-05-23 00:46:00,46.5,0.0,29.99,NE,41,1.0,-999.0,0,-99.99,,,0.00,dwt +perl,2013-05-23 07:46:00,
2013-05-23 00:51:00,46.4,0.0,29.99,East,86,0.0,-999.0,0,-99.99,,,0.00,dwt +perl,2013-05-23 07:51:00,
2013-05-23 00:56:00,46.3,0.0,29.99,SSE,148,0.0,-999.0,0,-99.99,,,0.00,dwt +perl,2013-05-23 07:56:00,
2013-05-23 01:01:00,46.2,0.0,29.99,WNW,294,7.0,-999.0,0,-99.99,,,0.00,dwt +perl,2013-05-23 08:01:00,
2013-05-23 01:06:00,46.1,0.0,29.99,WNW,300,2.0,-999.0,0,-99.99,,,0.00,dwt +perl,2013-05-23 08:06:00,
2013-05-23 01:11:00,46.1,0.0,29.99,West,275,3.0,-999.0,0,-99.99,,,0.00,dwt +perl,2013-05-23 08:11:00,
2013-05-23 01:16:00,46.0,0.0,29.99,NW,323,2.0,-999.0,0,-99.99,,,0.00,dwt +perl,2013-05-23 08:16:00,
2013-05-23 01:21:00,46.0,0.0,29.99,NW,305,0.0,-999.0,0,-99.99,,,0.00,dwt +perl,2013-05-23 08:21:00,
2013-05-23 01:26:00,46.0,0.0,29.99,West,269,2.0,-999.0,0,-99.99,,,0.00,dwt +perl,2013-05-23 08:26:00,
2013-05-23 01:31:00,46.0,0.0,29.99,WNW,298,4.0,-999.0,0,-99.99,,,0.00,dwt +perl,2013-05-23 08:31:00,
2013-05-23 01:36:00,46.0,0.0,29.99,West,262,5.0,-999.0,0,-99.99,,,0.00,dwt +perl,2013-05-23 08:36:00,
2013-05-23 01:41:00,46.0,0.0,29.99,WNW,283,1.0,-999.0,0,-99.99,,,0.00,dwt +perl,2013-05-23 08:41:00,
2013-05-23 01:46:00,46.0,0.0,29.99,West,281,4.0,-999.0,0,-99.99,,,0.00,dwt +perl,2013-05-23 08:46:00,
2013-05-23 01:51:00,46.0,0.0,29.99,North,351,1.0,-999.0,0,-99.99,,,0.00,dwt +perl,2013-05-23 08:51:00,
2013-05-23 01:56:00,45.9,0.0,29.99,ENE,60,3.0,-999.0,0,-99.99,,,0.00,dwt +perl,2013-05-23 08:56:00,
2013-05-23 02:01:00,45.9,0.0,29.99,NNW,341,5.0,-999.0,0,-99.99,,,0.00,dwt +perl,2013-05-23 09:01:00,
2013-05-23 02:06:00,45.9,0.0,29.98,NNE,24,1.0,-999.0,0,-99.99,,,0.00,dwt +perl,2013-05-23 09:06:00,
2013-05-23 02:11:00,45.9,0.0,29.98,SSW,196,1.0,-999.0,0,-99.99,,,0.00,dwt +perl,2013-05-23 09:11:00,
2013-05-23 02:16:00,45.9,0.0,29.98,North,5,3.0,-999.0,0,-99.99,,,0.00,dwt +perl,2013-05-23 09:16:00,
2013-05-23 02:21:00,45.8,0.0,29.98,NNW,343,2.0,-999.0,0,-99.99,,,0.00,dwt +perl,2013-05-23 09:21:00,
2013-05-23 02:26:00,45.7,0.0,29.98,WSW,258,0.0,-999.0,0,-99.99,,,0.00,dwt +perl,2013-05-23 09:26:00,
2013-05-23 02:31:00,45.6,0.0,29.98,West,264,0.0,-999.0,0,-99.99,,,0.00,dwt +perl,2013-05-23 09:31:00,
2013-05-23 02:36:00,45.6,0.0,29.98,West,261,3.0,-999.0,0,-99.99,,,0.00,dwt +perl,2013-05-23 09:36:00,
2013-05-23 02:41:00,45.5,0.0,29.98,WSW,237,0.0,-999.0,0,-99.99,,,0.00,dwt +perl,2013-05-23 09:41:00,
2013-05-23 02:46:00,45.4,0.0,29.98,NNE,22,1.0,-999.0,0,-99.99,,,0.00,dwt +perl,2013-05-23 09:46:00,
2013-05-23 02:51:00,45.3,0.0,29.98,NNW,342,0.0,-999.0,0,-99.99,,,0.00,dwt +perl,2013-05-23 09:51:00,
2013-05-23 02:56:00,45.3,0.0,29.98,West,263,0.0,-999.0,0,-99.99,,,0.00,dwt +perl,2013-05-23 09:56:00,
2013-05-23 03:01:00,45.3,0.0,29.99,WNW,288,4.0,-999.0,0,-99.99,,,0.00,dwt +perl,2013-05-23 10:01:00,
2013-05-23 03:06:00,45.2,0.0,29.98,ESE,114,1.0,-999.0,0,-99.99,,,0.00,dwt +perl,2013-05-23 10:06:00,
2013-05-23 03:11:00,45.1,0.0,29.98,NNW,336,3.0,-999.0,0,-99.99,,,0.00,dwt +perl,2013-05-23 10:11:00,
2013-05-23 03:16:00,45.0,0.0,29.99,North,9,0.0,-999.0,0,-99.99,,,0.00,dwt +perl,2013-05-23 10:16:00,
2013-05-23 03:21:00,44.9,0.0,29.98,West,276,5.0,-999.0,0,-99.99,,,0.00,dwt +perl,2013-05-23 10:21:00,
2013-05-23 03:26:00,44.7,0.0,29.98,NW,313,0.0,-999.0,0,-99.99,,,0.00,dwt +perl,2013-05-23 10:26:00,
2013-05-23 03:31:00,44.6,0.0,29.98,WNW,292,0.0,-999.0,0,-99.99,,,0.00,dwt +perl,2013-05-23 10:31:00,
2013-05-23 03:36:00,44.5,0.0,29.98,West,261,3.0,-999.0,0,-99.99,,,0.00,dwt +perl,2013-05-23 10:36:00,
2013-05-23 03:41:00,44.4,0.0,29.99,WSW,243,0.0,-999.0,0,-99.99,,,0.00,dwt +perl,2013-05-23 10:41:00,
2013-05-23 03:46:00,44.4,0.0,29.99,NNE,26,1.0,-999.0,0,-99.99,,,0.00,dwt +perl,2013-05-23 10:46:00,
2013-05-23 03:51:00,44.3,0.0,29.99,NW,325,0.0,-999.0,0,-99.99,,,0.00,dwt +perl,2013-05-23 10:51:00,
2013-05-23 03:56:00,44.3,0.0,29.99,East,80,0.0,-999.0,0,-99.99,,,0.00,dwt +perl,2013-05-23 10:56:00,
2013-05-23 04:01:00,44.3,0.0,29.99,ENE,61,0.0,-999.0,0,-99.99,,,0.00,dwt +perl,2013-05-23 11:01:00,
2013-05-23 04:06:00,44.3,0.0,29.99,West,269,1.0,-999.0,0,-99.99,,,0.00,dwt +perl,2013-05-23 11:06:00,
2013-05-23 04:11:00,44.3,0.0,29.99,West,267,2.0,-999.0,0,-99.99,,,0.00,dwt +perl,2013-05-23 11:11:00,
2013-05-23 04:16:00,44.4,0.0,29.99,NE,40,0.0,-999.0,0,-99.99,,,0.00,dwt +perl,2013-05-23 11:16:00,
2013-05-23 04:21:00,44.5,0.0,29.99,West,262,0.0,-999.0,0,-99.99,,,0.00,dwt +perl,2013-05-23 11:21:00,
2013-05-23 04:26:00,44.5,0.0,29.99,WSW,257,2.0,-999.0,0,-99.99,,,0.00,dwt +perl,2013-05-23 11:26:00,
2013-05-23 04:31:00,44.5,0.0,29.99,ENE,69,0.0,-999.0,0,-99.99,,,0.00,dwt +perl,2013-05-23 11:31:00,
2013-05-23 04:36:00,44.5,0.0,29.99,ESE,111,0.0,-999.0,0,-99.99,,,0.00,dwt +perl,2013-05-23 11:36:00,
2013-05-23 04:41:00,44.4,0.0,29.99,NW,319,1.0,-999.0,0,-99.99,,,0.00,dwt +perl,2013-05-23 11:41:00,
2013-05-23 04:46:00,44.3,0.0,29.99,North,355,1.0,-999.0,0,-99.99,,,0.00,dwt +perl,2013-05-23 11:46:00,
2013-05-23 04:51:00,44.2,0.0,29.99,SSW,206,0.0,-999.0,0,-99.99,,,0.00,dwt +perl,2013-05-23 11:51:00,
2013-05-23 04:56:00,44.1,0.0,29.99,SW,223,0.0,-999.0,0,-99.99,,,0.00,dwt +perl,2013-05-23 11:56:00,
2013-05-23 05:01:00,44.0,0.0,29.99,WSW,250,1.0,-999.0,0,-99.99,,,0.00,dwt +perl,2013-05-23 12:01:00,
2013-05-23 05:06:00,44.0,0.0,29.99,NE,40,1.0,-999.0,0,-99.99,,,0.00,dwt +perl,2013-05-23 12:06:00,
2013-05-23 05:11:00,43.9,0.0,29.99,NNE,31,0.0,-999.0,0,-99.99,,,0.00,dwt +perl,2013-05-23 12:11:00,
2013-05-23 05:16:00,43.8,0.0,29.99,NNW,346,5.0,-999.0,0,-99.99,,,0.00,dwt +perl,2013-05-23 12:16:00,
2013-05-23 05:21:00,43.8,0.0,29.99,NNW,329,0.0,-999.0,0,-99.99,,,0.00,dwt +perl,2013-05-23 12:21:00,
2013-05-23 05:26:00,43.8,0.0,29.99,WNW,282,0.0,-999.0,0,-99.99,,,0.00,dwt +perl,2013-05-23 12:26:00,
2013-05-23 05:31:00,43.7,0.0,29.99,East,86,2.0,-999.0,0,-99.99,,,0.00,dwt +perl,2013-05-23 12:31:00,
2013-05-23 05:36:00,43.6,0.0,29.99,North,11,0.0,-999.0,0,-99.99,,,0.00,dwt +perl,2013-05-23 12:36:00,
2013-05-23 05:41:00,43.6,0.0,29.99,NNW,331,2.0,-999.0,0,-99.99,,,0.00,dwt +perl,2013-05-23 12:41:00,
2013-05-23 05:46:00,43.5,0.0,29.99,ESE,113,1.0,-999.0,0,-99.99,,,0.00,dwt +perl,2013-05-23 12:46:00,
2013-05-23 05:51:00,43.4,0.0,30.00,NW,315,0.0,-999.0,0,-99.99,,,0.00,dwt +perl,2013-05-23 12:51:00,
2013-05-23 05:56:00,43.4,0.0,30.00,WNW,298,0.0,-999.0,0,-99.99,,,0.00,dwt +perl,2013-05-23 12:56:00,
2013-05-23 06:01:00,43.3,0.0,30.00,NNW,340,0.0,-999.0,0,-99.99,,,0.00,dwt +perl,2013-05-23 13:01:00,
2013-05-23 06:06:00,43.3,0.0,30.00,ESE,116,0.0,-999.0,0,-99.99,,,0.00,dwt +perl,2013-05-23 13:06:00,
2013-05-23 06:11:00,43.3,0.0,30.00,ENE,71,1.0,-999.0,0,-99.99,,,0.00,dwt +perl,2013-05-23 13:11:00,
2013-05-23 06:16:00,43.4,0.0,30.00,East,79,1.0,-999.0,0,-99.99,,,0.00,dwt +perl,2013-05-23 13:16:00,
2013-05-23 06:21:00,43.4,0.0,30.00,North,351,2.0,-999.0,0,-99.99,,,0.00,dwt +perl,2013-05-23 13:21:00,
2013-05-23 06:26:00,43.5,0.0,30.00,West,281,0.0,-999.0,0,-99.99,,,0.00,dwt +perl,2013-05-23 13:26:00,
2013-05-23 06:31:00,43.6,0.0,30.00,North,5,0.0,-999.0,0,-99.99,,,0.00,dwt +perl,2013-05-23 13:31:00,
2013-05-23 06:36:00,43.7,0.0,30.00,North,5,3.0,-999.0,0,-99.99,,,0.00,dwt +perl,2013-05-23 13:36:00,
2013-05-23 06:41:00,43.8,0.0,30.00,NE,49,2.0,-999.0,0,-99.99,,,0.00,dwt +perl,2013-05-23 13:41:00,
2013-05-23 06:46:00,43.9,0.0,30.00,ENE,59,0.0,-999.0,0,-99.99,,,0.00,dwt +perl,2013-05-23 13:46:00,
2013-05-23 06:51:00,44.0,0.0,30.00,North,350,2.0,-999.0,0,-99.99,,,0.00,dwt +perl,2013-05-23 13:51:00,
2013-05-23 06:56:00,44.2,0.0,30.00,NNW,338,0.0,-999.0,0,-99.99,,,0.00,dwt +perl,2013-05-23 13:56:00,
2013-05-23 07:01:00,44.3,0.0,30.01,NNE,22,0.0,-999.0,0,-99.99,,,0.00,dwt +perl,2013-05-23 14:01:00,
2013-05-23 07:06:00,44.5,0.0,30.01,NNE,27,0.0,-999.0,0,-99.99,,,0.00,dwt +perl,2013-05-23 14:06:00,
2013-05-23 07:11:00,44.7,0.0,30.01,ENE,59,1.0,-999.0,0,-99.99,,,0.00,dwt +perl,2013-05-23 14:11:00,
2013-05-23 07:16:00,45.0,0.0,30.01,NE,40,2.0,-999.0,0,-99.99,,,0.00,dwt +perl,2013-05-23 14:16:00,
2013-05-23 07:21:00,45.3,0.0,30.01,NNE,26,0.0,-999.0,0,-99.99,,,0.00,dwt +perl,2013-05-23 14:21:00,
2013-05-23 07:26:00,45.5,0.0,30.01,WNW,298,0.0,-999.0,0,-99.99,,,0.00,dwt +perl,2013-05-23 14:26:00,
2013-05-23 07:31:00,45.9,0.0,30.01,North,10,3.0,-999.0,0,-99.99,,,0.00,dwt +perl,2013-05-23 14:31:00,
2013-05-23 07:36:00,46.2,0.0,30.01,WNW,295,1.0,-999.0,0,-99.99,,,0.00,dwt +perl,2013-05-23 14:36:00,
2013-05-23 07:41:00,46.6,-22.1,30.01,WNW,285,6.0,-999.0,1,-99.99,,,0.00,dwt +perl,2013-05-23 14:41:00,
2013-05-23 07:46:00,47.2,4.8,30.01,NW,311,2.0,-999.0,8,-99.99,,,0.00,dwt +perl,2013-05-23 14:46:00,
2013-05-23 07:51:00,47.6,19.8,30.01,NNE,32,2.0,-999.0,21,-99.99,,,0.00,dwt +perl,2013-05-23 14:51:00,
2013-05-23 07:56:00,47.8,20.7,30.01,NNW,338,5.0,-999.0,22,-99.99,,,0.00,dwt +perl,2013-05-23 14:56:00,
2013-05-23 08:01:00,48.1,24.3,30.01,WNW,284,0.0,-999.0,27,-99.99,,,0.00,dwt +perl,2013-05-23 15:01:00,
2013-05-23 08:06:00,48.3,25.1,30.01,NW,306,2.0,-999.0,28,-99.99,,,0.00,dwt +perl,2013-05-23 15:06:00,
2013-05-23 08:11:00,48.5,27.5,30.01,NNE,26,2.0,-999.0,32,-99.99,,,0.00,dwt +perl,2013-05-23 15:11:00,
2013-05-23 08:16:00,48.6,27.6,30.02,WNW,300,2.0,-999.0,32,-99.99,,,0.00,dwt +perl,2013-05-23 15:16:00,
2013-05-23 08:21:00,48.8,27.8,30.02,NNW,337,1.0,-999.0,32,-99.99,,,0.00,dwt +perl,2013-05-23 15:21:00,
2013-05-23 08:26:00,49.0,30.5,30.02,NNE,15,3.0,-999.0,37,-99.99,,,0.00,dwt +perl,2013-05-23 15:26:00,
2013-05-23 08:31:00,49.1,29.6,30.02,WSW,248,0.0,-999.0,35,-99.99,,,0.00,dwt +perl,2013-05-23 15:31:00,
2013-05-23 08:36:00,49.3,29.7,30.02,North,10,2.0,-999.0,35,-99.99,,,0.00,dwt +perl,2013-05-23 15:36:00,
2013-05-23 08:41:00,49.2,30.2,30.02,SSE,164,0.0,-999.0,36,-99.99,,,0.00,dwt +perl,2013-05-23 15:41:00,
2013-05-23 08:46:00,49.3,30.7,30.02,NW,306,1.0,-999.0,37,-99.99,,,0.00,dwt +perl,2013-05-23 15:46:00,
2013-05-23 08:51:00,49.3,32.1,30.02,NNW,336,2.0,-999.0,40,-99.99,,,0.00,dwt +perl,2013-05-23 15:51:00,
2013-05-23 08:56:00,49.3,31.2,30.02,West,278,2.0,-999.0,38,-99.99,,,0.00,dwt +perl,2013-05-23 15:56:00,
2013-05-23 09:01:00,49.6,30.0,30.02,NE,46,3.0,-999.0,35,-99.99,,,0.00,dwt +perl,2013-05-23 16:01:00,
2013-05-23 09:06:00,50.0,32.3,30.03,SSW,197,2.0,-999.0,39,-99.99,,,0.00,dwt +perl,2013-05-23 16:06:00,
2013-05-23 09:11:00,50.1,33.7,30.02,NNE,24,2.0,-999.0,42,-99.99,,,0.00,dwt +perl,2013-05-23 16:11:00,
2013-05-23 09:16:00,50.4,33.9,30.02,ENE,72,3.0,-999.0,42,-99.99,,,0.00,dwt +perl,2013-05-23 16:16:00,
2013-05-23 09:21:00,50.5,34.4,30.02,North,360,5.0,-999.0,43,-99.99,,,0.00,dwt +perl,2013-05-23 16:21:00,
2013-05-23 09:26:00,50.3,35.1,30.03,NNW,336,2.0,-999.0,45,-99.99,,,0.00,dwt +perl,2013-05-23 16:26:00,
2013-05-23 09:31:00,50.4,34.8,30.03,WSW,254,2.0,-999.0,44,-99.99,,,0.00,dwt +perl,2013-05-23 16:31:00,
2013-05-23 09:36:00,50.5,34.4,30.03,North,5,2.0,-999.0,43,-99.99,,,0.00,dwt +perl,2013-05-23 16:36:00,
2013-05-23 09:41:00,50.4,35.2,30.03,NE,39,4.0,-999.0,45,-99.99,,,0.00,dwt +perl,2013-05-23 16:41:00,
2013-05-23 09:51:00,50.3,35.1,30.03,ENE,71,3.0,-999.0,45,-99.99,,,0.00,dwt +perl,2013-05-23 16:51:00,
2013-05-23 09:56:00,50.5,34.9,30.02,NE,55,2.0,-999.0,44,-99.99,,,0.00,dwt +perl,2013-05-23 16:56:00,
2013-05-23 10:01:00,50.7,35.4,30.02,ENE,62,0.0,-999.0,45,-99.99,,,0.00,dwt +perl,2013-05-23 17:01:00,
2013-05-23 10:06:00,51.1,35.8,30.02,East,92,1.0,-999.0,45,-99.99,,,0.00,dwt +perl,2013-05-23 17:06:00,
2013-05-23 10:11:00,51.5,37.0,30.02,NNE,29,1.0,-999.0,47,-99.99,,,0.00,dwt +perl,2013-05-23 17:11:00,
2013-05-23 10:16:00,51.4,38.4,30.02,NW,315,4.0,-999.0,51,-99.99,,,0.00,dwt +perl,2013-05-23 17:16:00,
2013-05-23 10:21:00,51.1,38.5,30.03,West,262,3.0,-999.0,52,-99.99,,,0.00,dwt +perl,2013-05-23 17:21:00,
2013-05-23 10:26:00,51.1,37.4,30.03,NW,305,2.0,-999.0,49,-99.99,,,0.00,dwt +perl,2013-05-23 17:26:00,
2013-05-23 10:31:00,51.4,37.6,30.03,ENE,73,3.0,-999.0,49,-99.99,,,0.00,dwt +perl,2013-05-23 17:31:00,
2013-05-23 10:36:00,51.8,38.7,30.03,NW,318,1.0,-999.0,51,-99.99,,,0.00,dwt +perl,2013-05-23 17:36:00,
2013-05-23 10:41:00,52.0,38.9,30.03,WSW,248,3.0,-999.0,51,-99.99,,,0.00,dwt +perl,2013-05-23 17:41:00,
2013-05-23 10:46:00,52.1,40.1,30.03,North,350,2.0,-999.0,54,-99.99,,,0.00,dwt +perl,2013-05-23 17:46:00,
2013-05-23 10:51:00,51.9,40.2,30.03,West,279,3.0,-999.0,55,-99.99,,,0.00,dwt +perl,2013-05-23 17:51:00,
2013-05-23 10:56:00,51.7,39.7,30.04,SW,218,4.0,-999.0,54,-99.99,,,0.00,dwt +perl,2013-05-23 17:56:00,
2013-05-23 11:01:00,51.7,39.0,30.04,SSW,211,3.0,-999.0,52,-99.99,,,0.00,dwt +perl,2013-05-23 18:01:00,
2013-05-23 11:06:00,52.3,40.6,30.04,WNW,294,9.0,-999.0,55,-99.99,,,0.00,dwt +perl,2013-05-23 18:06:00,
2013-05-23 11:11:00,52.7,41.3,30.04,NE,34,2.0,-999.0,56,-99.99,,,0.00,dwt +perl,2013-05-23 18:11:00,
2013-05-23 11:16:00,52.7,42.3,30.04,West,274,7.0,-999.0,59,-99.99,,,0.00,dwt +perl,2013-05-23 18:16:00,
2013-05-23 11:21:00,52.7,41.3,30.04,NW,306,2.0,-999.0,56,-99.99,,,0.00,dwt +perl,2013-05-23 18:21:00,
2013-05-23 11:26:00,53.2,42.4,30.05,NNE,24,6.0,-999.0,58,-99.99,,,0.00,dwt +perl,2013-05-23 18:26:00,
2013-05-23 11:31:00,53.1,42.3,30.05,NE,36,4.0,-999.0,58,-99.99,,,0.00,dwt +perl,2013-05-23 18:31:00,
2013-05-23 11:36:00,53.4,43.3,30.05,West,266,1.0,-999.0,60,-99.99,,,0.00,dwt +perl,2013-05-23 18:36:00,
2013-05-23 11:41:00,53.2,43.1,30.05,SW,221,0.0,-999.0,60,-99.99,,,0.00,dwt +perl,2013-05-23 18:41:00,
2013-05-23 11:46:00,53.3,43.2,30.05,West,266,7.0,-999.0,60,-99.99,,,0.00,dwt +perl,2013-05-23 18:46:00,
2013-05-23 11:56:00,53.8,44.0,30.05,NE,49,2.0,-999.0,61,-99.99,,,0.00,dwt +perl,2013-05-23 18:56:00,
2013-05-23 12:01:00,53.8,44.0,30.05,WNW,294,14.0,-999.0,61,-99.99,,,0.00,dwt +perl,2013-05-23 19:01:00,
2013-05-23 12:06:00,53.6,43.8,30.05,NNW,337,2.0,-999.0,61,-99.99,,,0.00,dwt +perl,2013-05-23 19:06:00,
2013-05-23 12:11:00,54.0,44.2,30.05,NW,324,7.0,-999.0,61,-99.99,,,0.00,dwt +perl,2013-05-23 19:11:00,
2013-05-23 12:16:00,53.9,44.1,30.05,North,355,5.0,-999.0,61,-99.99,,,0.00,dwt +perl,2013-05-23 19:16:00,
2013-05-23 12:21:00,53.6,43.8,30.05,WSW,255,2.0,-999.0,61,-99.99,,,0.00,dwt +perl,2013-05-23 19:21:00,
2013-05-23 12:26:00,53.5,43.0,30.05,NNE,28,3.0,-999.0,59,-99.99,,,0.00,dwt +perl,2013-05-23 19:26:00,
2013-05-23 12:31:00,54.0,44.2,30.05,NE,42,3.0,-999.0,61,-99.99,,,0.00,dwt +perl,2013-05-23 19:31:00,
2013-05-23 12:36:00,54.1,43.9,30.05,WNW,286,1.0,-999.0,60,-99.99,,,0.00,dwt +perl,2013-05-23 19:36:00,
2013-05-23 12:41:00,54.9,45.0,30.05,WNW,282,3.0,-999.0,61,-99.99,,,0.00,dwt +perl,2013-05-23 19:41:00,
2013-05-23 12:46:00,54.5,45.2,30.05,ESE,117,0.0,-999.0,63,-99.99,,,0.00,dwt +perl,2013-05-23 19:46:00,
2013-05-23 12:51:00,54.6,45.3,30.05,NE,42,4.0,-999.0,63,-99.99,,,0.00,dwt +perl,2013-05-23 19:51:00,
2013-05-23 12:56:00,54.1,44.9,30.05,NNW,344,1.0,-999.0,63,-99.99,,,0.00,dwt +perl,2013-05-23 19:56:00,
2013-05-23 13:01:00,54.3,44.7,30.05,ENE,77,1.0,-999.0,62,-99.99,,,0.00,dwt +perl,2013-05-23 20:01:00,
2013-05-23 13:06:00,54.6,44.7,30.05,West,262,4.0,-999.0,61,-99.99,,,0.00,dwt +perl,2013-05-23 20:06:00,
2013-05-23 13:11:00,55.0,45.4,30.05,ESE,109,2.0,-999.0,62,-99.99,,,0.00,dwt +perl,2013-05-23 20:11:00,
2013-05-23 13:16:00,54.9,45.6,30.05,WSW,250,2.0,-999.0,63,-99.99,,,0.00,dwt +perl,2013-05-23 20:16:00,
2013-05-23 13:21:00,54.6,45.3,30.06,WNW,286,5.0,-999.0,63,-99.99,,,0.00,dwt +perl,2013-05-23 20:21:00,
2013-05-23 13:26:00,55.1,45.5,30.05,NE,42,1.0,-999.0,62,-99.99,,,0.00,dwt +perl,2013-05-23 20:26:00,
2013-05-23 13:31:00,55.9,46.6,30.05,NNE,31,2.0,-999.0,63,-99.99,,,0.00,dwt +perl,2013-05-23 20:31:00,
2013-05-23 13:36:00,56.2,47.1,30.05,WNW,283,10.0,-999.0,64,-99.99,,,0.00,dwt +perl,2013-05-23 20:36:00,
2013-05-23 13:41:00,55.4,46.1,30.05,NNW,338,4.0,-999.0,63,-99.99,,,0.00,dwt +perl,2013-05-23 20:41:00,
2013-05-23 13:46:00,55.0,45.7,30.06,West,281,4.0,-999.0,63,-99.99,,,0.00,dwt +perl,2013-05-23 20:46:00,
2013-05-23 13:51:00,54.2,45.0,30.05,NE,44,5.0,-999.0,63,-99.99,,,0.00,dwt +perl,2013-05-23 20:51:00,
2013-05-23 13:56:00,54.3,44.7,30.05,NNW,333,4.0,-999.0,62,-99.99,,,0.00,dwt +perl,2013-05-23 20:56:00,
2013-05-23 14:01:00,54.6,44.7,30.05,South,176,1.0,-999.0,61,-99.99,,,0.00,dwt +perl,2013-05-23 21:01:00,
2013-05-23 14:06:00,55.2,45.9,30.05,NNW,342,1.0,-999.0,63,-99.99,,,0.00,dwt +perl,2013-05-23 21:06:00,
2013-05-23 14:16:00,55.7,46.1,30.05,SE,124,0.0,-999.0,62,-99.99,,,0.00,dwt +perl,2013-05-23 21:16:00,
2013-05-23 14:21:00,56.4,47.3,30.05,NNW,327,3.0,-999.0,64,-99.99,,,0.00,dwt +perl,2013-05-23 21:21:00,
2013-05-23 14:26:00,55.4,46.4,30.04,SW,229,3.0,-999.0,64,-99.99,,,0.00,dwt +perl,2013-05-23 21:26:00,
2013-05-23 14:31:00,55.0,45.7,30.05,WSW,251,1.0,-999.0,63,-99.99,,,0.00,dwt +perl,2013-05-23 21:31:00,
2013-05-23 14:36:00,54.9,45.6,30.05,SW,226,3.0,-999.0,63,-99.99,,,0.00,dwt +perl,2013-05-23 21:36:00,
2013-05-23 14:41:00,54.6,45.3,30.04,WNW,302,2.0,-999.0,63,-99.99,,,0.00,dwt +perl,2013-05-23 21:41:00,
2013-05-23 14:46:00,55.0,45.1,30.05,West,273,15.0,-999.0,61,-99.99,,,0.00,dwt +perl,2013-05-23 21:46:00,
2013-05-23 14:51:00,55.0,45.1,30.05,NNW,327,3.0,-999.0,61,-99.99,,,0.00,dwt +perl,2013-05-23 21:51:00,
2013-05-23 14:56:00,55.6,46.0,30.05,WNW,300,2.0,-999.0,62,-99.99,,,0.00,dwt +perl,2013-05-23 21:56:00,
2013-05-23 15:01:00,55.6,46.3,30.05,WSW,253,2.0,-999.0,63,-99.99,,,0.00,dwt +perl,2013-05-23 22:01:00,
2013-05-23 15:06:00,54.9,45.3,30.05,NNE,15,3.0,-999.0,62,-99.99,,,0.00,dwt +perl,2013-05-23 22:06:00,
2013-05-23 15:11:00,55.3,45.7,30.05,West,281,6.0,-999.0,62,-99.99,,,0.00,dwt +perl,2013-05-23 22:11:00,
2013-05-23 15:16:00,55.2,45.6,30.05,NW,325,1.0,-999.0,62,-99.99,,,0.00,dwt +perl,2013-05-23 22:16:00,
2013-05-23 15:21:00,55.5,45.9,30.05,WSW,257,3.0,-999.0,62,-99.99,,,0.00,dwt +perl,2013-05-23 22:21:00,
2013-05-23 15:26:00,55.2,45.3,30.05,WSW,242,3.0,-999.0,61,-99.99,,,0.00,dwt +perl,2013-05-23 22:26:00,
2013-05-23 15:31:00,55.2,45.3,30.05,NW,306,3.0,-999.0,61,-99.99,,,0.00,dwt +perl,2013-05-23 22:31:00,
2013-05-23 15:36:00,54.9,44.7,30.05,ENE,67,2.0,-999.0,60,-99.99,,,0.00,dwt +perl,2013-05-23 22:36:00,
2013-05-23 15:41:00,55.2,45.0,30.05,NNE,15,4.0,-999.0,60,-99.99,,,0.00,dwt +perl,2013-05-23 22:41:00,
2013-05-23 15:46:00,54.9,44.7,30.05,West,277,5.0,-999.0,60,-99.99,,,0.00,dwt +perl,2013-05-23 22:46:00,
2013-05-23 15:51:00,54.0,43.2,30.04,WNW,294,1.0,-999.0,58,-99.99,,,0.00,dwt +perl,2013-05-23 22:51:00,
2013-05-23 15:56:00,54.2,43.4,30.04,NW,305,2.0,-999.0,58,-99.99,,,0.00,dwt +perl,2013-05-23 22:56:00,
2013-05-23 16:01:00,54.4,43.2,30.04,NW,308,3.0,-999.0,57,-99.99,,,0.00,dwt +perl,2013-05-23 23:01:00,
2013-05-23 16:06:00,54.1,42.6,30.04,SW,221,4.0,-999.0,56,-99.99,,,0.00,dwt +perl,2013-05-23 23:06:00,
2013-05-23 16:11:00,54.4,43.2,30.04,West,274,3.0,-999.0,57,-99.99,,,0.00,dwt +perl,2013-05-23 23:11:00,
2013-05-23 16:16:00,54.1,42.9,30.04,NW,317,3.0,-999.0,57,-99.99,,,0.00,dwt +perl,2013-05-23 23:16:00,
2013-05-23 16:21:00,53.7,42.2,30.04,WSW,250,1.0,-999.0,56,-99.99,,,0.00,dwt +perl,2013-05-23 23:21:00,
2013-05-23 16:26:00,54.1,41.6,30.04,NNE,22,5.0,-999.0,53,-99.99,,,0.00,dwt +perl,2013-05-23 23:26:00,
2013-05-23 16:31:00,54.6,43.4,30.04,NNE,32,2.0,-999.0,57,-99.99,,,0.00,dwt +perl,2013-05-23 23:31:00,
2013-05-23 16:36:00,54.2,43.0,30.04,NNE,28,3.0,-999.0,57,-99.99,,,0.00,dwt +perl,2013-05-23 23:36:00,
2013-05-23 16:41:00,54.0,42.8,30.04,WNW,292,2.0,-999.0,57,-99.99,,,0.00,dwt +perl,2013-05-23 23:41:00,
2013-05-23 16:46:00,53.5,41.7,30.04,NW,322,1.0,-999.0,55,-99.99,,,0.00,dwt +perl,2013-05-23 23:46:00,
2013-05-23 16:51:00,53.5,40.6,30.04,West,279,3.0,-999.0,52,-99.99,,,0.00,dwt +perl,2013-05-23 23:51:00,
2013-05-23 16:56:00,52.9,40.1,30.04,NW,308,0.0,-999.0,52,-99.99,,,0.00,dwt +perl,2013-05-23 23:56:00,
2013-05-23 17:01:00,52.8,38.9,30.04,North,9,2.0,-999.0,49,-99.99,,,0.00,dwt +perl,2013-05-24 00:01:00,
2013-05-23 17:06:00,52.6,37.6,30.04,North,355,3.0,-999.0,46,-99.99,,,0.00,dwt +perl,2013-05-24 00:06:00,
2013-05-23 17:11:00,52.7,37.6,30.04,West,275,5.0,-999.0,46,-99.99,,,0.00,dwt +perl,2013-05-24 00:11:00,
2013-05-23 17:16:00,52.6,36.3,30.04,WNW,284,7.0,-999.0,43,-99.99,,,0.00,dwt +perl,2013-05-24 00:16:00,
2013-05-23 17:21:00,52.2,36.4,30.04,SW,228,5.0,-999.0,44,-99.99,,,0.00,dwt +perl,2013-05-24 00:21:00,
2013-05-23 17:26:00,51.6,34.1,30.04,NW,311,9.0,-999.0,40,-99.99,,,0.00,dwt +perl,2013-05-24 00:26:00,
2013-05-23 17:31:00,51.4,31.1,30.04,WSW,249,3.0,-999.0,34,-99.99,,,0.00,dwt +perl,2013-05-24 00:31:00,
2013-05-23 17:36:00,51.2,29.8,30.04,SW,234,1.0,-999.0,32,-99.99,,,0.00,dwt +perl,2013-05-24 00:36:00,
2013-05-23 17:41:00,51.2,28.7,30.04,NW,304,3.0,-999.0,30,-99.99,,,0.00,dwt +perl,2013-05-24 00:41:00,
2013-05-23 17:46:00,51.3,30.5,30.04,NNW,338,1.0,-999.0,33,-99.99,,,0.00,dwt +perl,2013-05-24 00:46:00,
2013-05-23 17:51:00,51.2,29.3,30.04,WNW,302,3.0,-999.0,31,-99.99,,,0.00,dwt +perl,2013-05-24 00:51:00,
2013-05-23 17:56:00,51.4,31.1,30.03,NW,305,4.0,-999.0,34,-99.99,,,0.00,dwt +perl,2013-05-24 00:56:00,
2013-05-23 18:01:00,51.5,31.2,30.03,WSW,255,6.0,-999.0,34,-99.99,,,0.00,dwt +perl,2013-05-24 01:01:00,
2013-05-23 18:06:00,51.8,32.4,30.03,WNW,296,3.0,-999.0,36,-99.99,,,0.00,dwt +perl,2013-05-24 01:06:00,
2013-05-23 18:11:00,51.9,33.0,30.03,NW,317,0.0,-999.0,37,-99.99,,,0.00,dwt +perl,2013-05-24 01:11:00,
2013-05-23 18:16:00,52.2,33.3,30.03,WSW,246,4.0,-999.0,37,-99.99,,,0.00,dwt +perl,2013-05-24 01:16:00,
2013-05-23 18:21:00,51.8,33.8,30.03,West,276,1.0,-999.0,39,-99.99,,,0.00,dwt +perl,2013-05-24 01:21:00,
2013-05-23 18:26:00,51.9,33.9,30.03,WNW,286,2.0,-999.0,39,-99.99,,,0.00,dwt +perl,2013-05-24 01:26:00,
2013-05-23 18:31:00,51.8,33.8,30.03,South,171,2.0,-999.0,39,-99.99,,,0.00,dwt +perl,2013-05-24 01:31:00,
2013-05-23 18:36:00,51.8,32.9,30.03,WNW,285,3.0,-999.0,37,-99.99,,,0.00,dwt +perl,2013-05-24 01:36:00,
2013-05-23 18:41:00,51.6,32.2,30.03,SSE,159,1.0,-999.0,36,-99.99,,,0.00,dwt +perl,2013-05-24 01:41:00,
2013-05-23 18:46:00,51.6,31.2,30.03,North,350,2.0,-999.0,34,-99.99,,,0.00,dwt +perl,2013-05-24 01:46:00,
2013-05-23 18:51:00,51.4,31.1,30.03,NW,318,0.0,-999.0,34,-99.99,,,0.00,dwt +perl,2013-05-24 01:51:00,
2013-05-23 18:56:00,51.2,29.8,30.03,WSW,240,3.0,-999.0,32,-99.99,,,0.00,dwt +perl,2013-05-24 01:56:00,
2013-05-23 19:01:00,51.0,29.7,30.03,NE,44,0.0,-999.0,32,-99.99,,,0.00,dwt +perl,2013-05-24 02:01:00,
2013-05-23 19:06:00,50.5,27.5,30.03,East,83,0.0,-999.0,29,-99.99,,,0.00,dwt +perl,2013-05-24 02:06:00,
2013-05-23 19:11:00,50.2,24.8,30.03,East,86,0.0,-999.0,25,-99.99,,,0.00,dwt +perl,2013-05-24 02:11:00,
2013-05-23 19:16:00,50.1,22.6,30.03,North,355,0.0,-999.0,22,-99.99,,,0.00,dwt +perl,2013-05-24 02:16:00,
2013-05-23 19:21:00,50.1,23.3,30.03,ENE,73,1.0,-999.0,23,-99.99,,,0.00,dwt +perl,2013-05-24 02:21:00,
2013-05-23 19:26:00,49.9,22.4,30.02,East,93,3.0,-999.0,22,-99.99,,,0.00,dwt +perl,2013-05-24 02:26:00,
2013-05-23 19:31:00,49.6,20.6,30.02,NE,42,0.0,-999.0,20,-99.99,,,0.00,dwt +perl,2013-05-24 02:31:00,
2013-05-23 19:36:00,49.5,19.7,30.03,NNE,30,2.0,-999.0,19,-99.99,,,0.00,dwt +perl,2013-05-24 02:36:00,
2013-05-23 19:41:00,49.2,17.7,30.03,West,265,0.0,-999.0,17,-99.99,,,0.00,dwt +perl,2013-05-24 02:41:00,
2013-05-23 19:46:00,48.8,12.0,30.03,NNW,328,0.0,-999.0,12,-99.99,,,0.00,dwt +perl,2013-05-24 02:46:00,
2013-05-23 19:51:00,48.4,3.8,30.03,NE,53,3.0,-999.0,7,-99.99,,,0.00,dwt +perl,2013-05-24 02:51:00,
2013-05-23 19:56:00,48.0,-13.1,30.03,WNW,282,3.0,-999.0,2,-99.99,,,0.00,dwt +perl,2013-05-24 02:56:00,
2013-05-23 20:01:00,47.8,0.0,30.03,NNE,18,2.0,-999.0,0,-99.99,,,0.00,dwt +perl,2013-05-24 03:01:00,
2013-05-23 20:06:00,47.6,0.0,30.03,West,281,2.0,-999.0,0,-99.99,,,0.00,dwt +perl,2013-05-24 03:06:00,
2013-05-23 20:11:00,47.4,0.0,30.03,NNE,22,3.0,-999.0,0,-99.99,,,0.00,dwt +perl,2013-05-24 03:11:00,
2013-05-23 20:16:00,47.2,0.0,30.03,North,5,3.0,-999.0,0,-99.99,,,0.00,dwt +perl,2013-05-24 03:16:00,
2013-05-23 20:21:00,47.0,0.0,30.02,NW,321,0.0,-999.0,0,-99.99,,,0.00,dwt +perl,2013-05-24 03:21:00,
2013-05-23 20:26:00,46.9,0.0,30.03,East,90,0.0,-999.0,0,-99.99,,,0.00,dwt +perl,2013-05-24 03:26:00,
2013-05-23 20:31:00,46.7,0.0,30.02,NNE,30,3.0,-999.0,0,-99.99,,,0.00,dwt +perl,2013-05-24 03:31:00,
2013-05-23 20:36:00,46.6,0.0,30.03,NW,312,0.0,-999.0,0,-99.99,,,0.00,dwt +perl,2013-05-24 03:36:00,
2013-05-23 20:41:00,46.5,0.0,30.03,NNE,14,4.0,-999.0,0,-99.99,,,0.00,dwt +perl,2013-05-24 03:41:00,
2013-05-23 20:46:00,46.4,0.0,30.03,NNW,347,1.0,-999.0,0,-99.99,,,0.00,dwt +perl,2013-05-24 03:46:00,
2013-05-23 20:51:00,46.3,0.0,30.03,NW,311,1.0,-999.0,0,-99.99,,,0.00,dwt +perl,2013-05-24 03:51:00,
2013-05-23 20:56:00,46.2,0.0,30.03,NNE,14,5.0,-999.0,0,-99.99,,,0.00,dwt +perl,2013-05-24 03:56:00,
2013-05-23 21:01:00,46.2,0.0,30.03,NNE,15,5.0,-999.0,0,-99.99,,,0.00,dwt +perl,2013-05-24 04:01:00,
2013-05-23 21:06:00,46.1,0.0,30.03,ENE,69,3.0,-999.0,0,-99.99,,,0.00,dwt +perl,2013-05-24 04:06:00,
2013-05-23 21:11:00,46.1,0.0,30.03,NE,38,1.0,-999.0,0,-99.99,,,0.00,dwt +perl,2013-05-24 04:11:00,
2013-05-23 21:16:00,46.0,0.0,30.03,North,5,3.0,-999.0,0,-99.99,,,0.00,dwt +perl,2013-05-24 04:16:00,
2013-05-23 21:21:00,45.9,0.0,30.04,NNW,340,2.0,-999.0,0,-99.99,,,0.00,dwt +perl,2013-05-24 04:21:00,
2013-05-23 21:26:00,45.8,0.0,30.04,West,267,0.0,-999.0,0,-99.99,,,0.00,dwt +perl,2013-05-24 04:26:00,
2013-05-23 21:31:00,45.7,0.0,30.04,North,355,2.0,-999.0,0,-99.99,,,0.00,dwt +perl,2013-05-24 04:31:00,
2013-05-23 21:36:00,45.6,0.0,30.04,North,355,2.0,-999.0,0,-99.99,,,0.00,dwt +perl,2013-05-24 04:36:00,
2013-05-23 21:41:00,45.5,0.0,30.05,NE,41,0.0,-999.0,0,-99.99,,,0.00,dwt +perl,2013-05-24 04:41:00,
2013-05-23 21:46:00,45.4,0.0,30.05,NW,316,1.0,-999.0,0,-99.99,,,0.00,dwt +perl,2013-05-24 04:46:00,
2013-05-23 21:51:00,45.3,0.0,30.05,NE,50,3.0,-999.0,0,-99.99,,,0.00,dwt +perl,2013-05-24 04:51:00,
2013-05-23 21:56:00,45.2,0.0,30.05,NNW,333,5.0,-999.0,0,-99.99,,,0.00,dwt +perl,2013-05-24 04:56:00,
2013-05-23 22:01:00,45.2,0.0,30.05,NW,321,2.0,-999.0,0,-99.99,,,0.00,dwt +perl,2013-05-24 05:01:00,
2013-05-23 22:06:00,45.1,0.0,30.05,WNW,293,2.0,-999.0,0,-99.99,,,0.00,dwt +perl,2013-05-24 05:06:00,
2013-05-23 22:11:00,45.0,0.0,30.05,NNE,29,3.0,-999.0,0,-99.99,,,0.00,dwt +perl,2013-05-24 05:11:00,
2013-05-23 22:16:00,45.0,0.0,30.05,North,355,0.0,-999.0,0,-99.99,,,0.00,dwt +perl,2013-05-24 05:16:00,
2013-05-23 22:21:00,44.9,0.0,30.05,North,9,1.0,-999.0,0,-99.99,,,0.00,dwt +perl,2013-05-24 05:21:00,
2013-05-23 22:26:00,44.9,0.0,30.05,West,268,2.0,-999.0,0,-99.99,,,0.00,dwt +perl,2013-05-24 05:26:00,
2013-05-23 22:31:00,44.8,0.0,30.05,NNW,327,0.0,-999.0,0,-99.99,,,0.00,dwt +perl,2013-05-24 05:31:00,
2013-05-23 22:36:00,44.8,0.0,30.05,North,5,2.0,-999.0,0,-99.99,,,0.00,dwt +perl,2013-05-24 05:36:00,
2013-05-23 22:41:00,44.7,0.0,30.05,WNW,283,1.0,-999.0,0,-99.99,,,0.00,dwt +perl,2013-05-24 05:41:00,
2013-05-23 22:46:00,44.7,0.0,30.05,ENE,63,2.0,-999.0,0,-99.99,,,0.00,dwt +perl,2013-05-24 05:46:00,
2013-05-23 22:51:00,44.7,0.0,30.05,NNW,343,0.0,-999.0,0,-99.99,,,0.00,dwt +perl,2013-05-24 05:51:00,
2013-05-23 22:56:00,44.6,0.0,30.05,North,11,1.0,-999.0,0,-99.99,,,0.00,dwt +perl,2013-05-24 05:56:00,
2013-05-23 23:01:00,44.6,0.0,30.05,ENE,72,3.0,-999.0,0,-99.99,,,0.00,dwt +perl,2013-05-24 06:01:00,
2013-05-23 23:06:00,44.6,0.0,30.04,NNE,26,1.0,-999.0,0,-99.99,,,0.00,dwt +perl,2013-05-24 06:06:00,
2013-05-23 23:11:00,44.5,0.0,30.04,WNW,294,1.0,-999.0,0,-99.99,,,0.00,dwt +perl,2013-05-24 06:11:00,
2013-05-23 23:16:00,44.5,0.0,30.04,West,269,0.0,-999.0,0,-99.99,,,0.00,dwt +perl,2013-05-24 06:16:00,
2013-05-23 23:21:00,44.5,0.0,30.04,West,269,0.0,-999.0,0,-99.99,,,0.00,dwt +perl,2013-05-24 06:21:00,
2013-05-23 23:26:00,44.4,0.0,30.04,West,269,0.0,-999.0,0,-99.99,,,0.00,dwt +perl,2013-05-24 06:26:00,
2013-05-23 23:31:00,44.4,0.0,30.04,West,269,2.0,-999.0,0,-99.99,,,0.00,dwt +perl,2013-05-24 06:31:00,
2013-05-23 23:36:00,44.3,0.0,30.03,West,269,0.0,-999.0,0,-99.99,,,0.00,dwt +perl,2013-05-24 06:36:00,
2013-05-23 23:41:00,44.3,0.0,30.03,NNW,333,1.0,-999.0,0,-99.99,,,0.00,dwt +perl,2013-05-24 06:41:00,
2013-05-23 23:46:00,44.2,0.0,30.03,NNW,333,0.0,-999.0,0,-99.99,,,0.00,dwt +perl,2013-05-24 06:46:00,
2013-05-23 23:51:00,44.0,0.0,30.03,NNW,333,1.0,-999.0,0,-99.99,,,0.00,dwt +perl,2013-05-24 06:51:00,
2013-05-23 23:56:00,44.1,0.0,30.03,NNW,333,1.0,-999.0,0,-99.99,,,0.00,dwt +perl,2013-05-24 06:56:00,